Voltar ao catálogo

CZ-6A DEB

AtivoSSO
NORAD 56274·DEBRIS·🇨🇳 China

Lançado Nov 11, 2022 de Taiyuan Satellite Launch Center

Loading…

Próximas Passagens (próximas 24 horas)

TLE

AtualizadoSource: Space-Track

Época: Sep 14, 2026, 10:33 UTC

1 56274U 22151ACS 26257.43998262 -.00000198  00000-0 -93014-4 0  9991
2 56274  98.8770 249.6312 0063576 118.3238 242.4363 14.05960409179004

Acompanhe CZ-6A DEB em tempo real com AllMySat

Download on the App Store